sat.trackr.live / text

‹ back to catalog

STARLINK-31074

NORAD 58601 · 2023-200N

PAYLOAD ACTIVE UNKNOWN

§ Identity

Operator
Country
US
Launch date
2023-12-19
Launch site
AFETR
Launch vehicle
Mass (kg)
RCS (m²)

Purposes: comms

External: N2YO · Heavens-Above · Gunter

§ Orbital elements

Epoch: 2026-09-19T10:20:45.586752Z

Period
94.27 min
Inclination
43.0060°
Eccentricity
0.0002299
Mean motion
15.27581029 rev/d
Perigee alt
481.5 km
Apogee alt
484.6 km
Semi-major
6,861.2 km
B*
3.7053e-5
RAAN
154.4826°
Arg perigee
252.3650°
Mean anomaly
107.6950°
Rev number
15,324

§ Raw data

STARLINK-310741 58601U 23200N   26262.43108318  .00000757  00000+0  37053-4 0  99932 58601  43.0060 154.4826 0002299 252.3650 107.6950 15.27581029153243

JSON: /api/v1/satellites/58601 · /tle

For live sub-satellite position, see the globe view (requires WebGL).

§ Visibility from observer

Set your observer location to see the next 7 days of passes ≥ 10°. The values pass through the URL so the page stays shareable.

No JS? Fill the form by hand. The geolocation button needs JavaScript.